Theta_e
315 314 314 315 314 315 315 315 314 314 314 313 313 312 312 312 312 314 318 320 320 318 315 313 314 314 307 297 296 313 318 318 312 308 300 297 293 290 286 287 289 285 288 291 293 294 293
315 314 312 312 313 313 313 314 313 313 313 313 313 312 311 312 312 314 315 320 318 316 314 314 315 313 301 288 307 311 311 310 306 304 299 298 295 295 289 288 286 289 290 291 293 292 292
314 314 312 312 312 313 312 312 313 312 312 312 312 312 311 311 312 315 318 319 318 315 314 315 314 308 299 292 302 307 307 304 303 303 299 301 300 294 292 288 292 290 286 289 290 292 291
313 313 313 312 311 311 312 310 311 311 312 312 312 312 311 311 311 313 318 316 315 314 313 314 314 305 294 304 301 303 302 302 304 304 302 302 301 296 291 292 290 286 285 279 288 291 292
313 313 312 312 311 311 311 310 310 310 312 312 311 311 311 311 311 313 316 313 312 312 312 312 305 300 291 305 298 301 301 300 301 301 302 302 300 292 292 284 282 282 275 279 284 291 290
313 312 311 310 310 310 309 310 311 311 311 311 310 310 311 311 312 314 312 312 312 311 309 310 306 293 296 295 299 300 300 302 298 298 298 296 291 284 285 284 273 273 278 281 281 287 289
312 312 311 310 310 310 309 306 308 309 309 310 309 310 310 316 316 312 310 308 300 298 300 293 294 294 296 300 303 300 302 299 298 293 285 291 283 279 281 284 284 283 281 280 284 289 287
311 311 311 310 310 311 309 308 308 308 309 309 309 309 310 314 313 311 306 299 297 297 290 298 298 298 300 302 295 298 302 292 291 284 288 285 282 286 288 288 286 285 283 282 285 288 288
310 310 311 310 310 310 309 307 308 309 309 309 308 308 310 313 310 306 302 301 306 302 290 294 297 298 298 299 295 294 298 294 290 288 287 283 286 291 289 287 285 284 282 283 280 287 289
310 309 310 310 309 310 309 307 308 310 309 308 309 308 309 311 304 304 301 306 306 302 284 288 292 297 298 298 293 300 301 296 292 286 289 286 291 289 288 286 287 281 287 288 286 283 273
309 308 308 309 310 309 309 310 310 310 308 309 310 313 312 310 302 299 303 307 304 297 270 290 293 303 300 295 296 296 301 295 289 289 288 287 288 288 285 285 288 285 289 287 286 284 283
316 307 306 309 309 310 310 310 310 308 309 311 310 310 309 305 304 304 306 304 298 281 267 281 294 292 292 294 296 296 295 298 297 290 290 289 295 291 290 292 293 294 289 289 287 285 278
314 308 307 309 310 310 310 310 309 309 309 310 311 310 307 307 298 304 302 296 279 270 285 283 285 292 291 291 293 294 292 290 288 283 279 288 289 292 294 291 294 290 285 279 277 277 279
312 308 309 309 309 309 310 309 309 309 310 312 309 307 305 304 304 302 298 284 271 282 282 291 291 291 287 291 291 293 291 289 293 291 282 283 276 289 296 291 287 287 287 281 276 277 281
310 308 309 309 309 309 310 309 309 310 310 309 307 300 301 303 304 300 289 276 276 282 289 289 289 284 285 290 288 289 288 288 289 289 282 284 281 293 295 297 295 290 286 290 284 285 279
310 309 310 310 310 309 309 308 307 309 310 309 299 296 299 303 301 295 284 282 282 290 292 291 283 286 282 285 286 288 287 290 291 293 292 289 283 292 296 298 297 293 294 284 283 278 277
310 308 309 309 308 307 307 307 307 309 309 309 296 293 300 302 299 289 279 282 289 293 294 290 287 286 286 285 287 285 286 291 293 292 292 290 289 286 292 289 287 287 286 287 285 283 279
309 309 308 308 307 307 306 307 308 309 309 303 294 287 298 301 285 285 283 288 294 292 295 293 291 290 287 288 286 285 286 289 294 293 289 291 287 279 284 291 292 289 287 286 278 279 281
313 309 308 308 307 307 309 308 308 309 310 296 290 292 297 297 280 281 288 291 293 292 293 292 291 292 291 288 285 287 288 295 295 292 288 289 283 276 279 284 288 287 289 288 288 283 278
312 312 309 308 308 308 308 309 309 309 311 300 291 286 289 290 290 283 286 287 288 294 294 294 292 292 289 287 289 287 288 294 295 293 298 294 285 281 275 280 285 283 286 287 284 276 280
313 311 312 311 310 309 309 310 311 312 312 301 293 285 288 279 285 286 287 289 288 288 293 293 290 291 289 285 286 286 289 290 293 296 292 290 281 280 284 287 285 284 285 286 281 284 277
311 312 311 312 313 310 310 311 311 311 310 300 293 287 289 286 288 286 288 287 288 290 290 290 289 291 290 286 286 285 288 287 286 291 289 290 281 282 280 285 284 282 285 286 286 286 285
309 311 311 310 309 309 309 308 308 308 307 299 299 294 291 288 285 284 285 288 290 292 292 293 292 290 288 290 291 291 290 291 290 287 287 286 283 279 277 282 282 278 282 283 284 286 286
308 309 311 311 311 309 308 307 307 307 306 301 299 294 287 283 285 286 291 292 291 292 290 292 293 290 292 294 294 292 291 291 289 288 289 286 284 281 274 277 270 282 287 286 286 287 288
306 307 309 311 311 311 309 307 307 308 308 296 295 293 289 283 286 287 289 290 291 291 290 292 293 293 294 292 287 284 284 284 287 288 287 288 284 279 276 274 278 281 285 285 284 284 289
305 306 307 308 310 311 310 309 308 307 307 296 293 294 292 286 283 288 288 289 287 285 288 292 295 295 293 290 286 278 276 279 280 282 288 288 286 281 278 275 274 281 287 289 287 278 289
304 305 307 308 309 310 311 309 307 308 307 297 293 295 292 286 286 288 286 287 291 288 287 289 290 291 292 286 282 279 278 282 278 278 279 280 280 278 278 274 280 286 289 289 277 280 289
304 305 307 310 311 310 311 309 307 308 307 298 293 295 293 287 287 289 290 286 288 290 287 290 289 289 288 284 282 282 280 282 279 281 281 280 277 277 278 276 273 289 288 282 285 288 290
305 305 308 311 311 311 311 309 308 308 306 304 293 296 296 290 289 292 292 292 291 290 287 290 289 289 290 286 284 283 282 281 280 277 283 279 283 280 281 281 287 289 288 290 290 289 289
Wind_Speed
25 27 24 24 23 21 18 19 16 15 15 11 12 11 12 12 13 15 12 9 20 16 12 8 7 6 2 2 0 7 10 10 3 2 3 4 2 2 1 4 6 3 5 8 8 8 9
26 28 27 26 24 22 19 18 15 13 14 12 11 10 11 13 14 15 18 12 17 16 13 8 10 5 1 5 5 6 7 4 5 0 1 1 3 2 2 3 3 5 9 10 10 12 10
25 27 25 24 23 22 14 15 17 13 11 11 11 9 10 13 15 23 7 19 17 15 13 11 9 3 0 3 6 6 6 4 4 2 2 6 5 6 4 5 5 5 6 12 11 11 12
27 26 25 24 22 19 14 11 12 11 11 10 8 9 9 11 11 13 19 18 16 14 11 9 7 2 3 2 3 6 3 3 6 2 3 3 6 2 1 2 6 5 4 6 3 6 9
27 27 25 22 23 19 14 8 9 10 13 9 6 7 10 12 9 10 18 19 13 11 10 8 2 1 3 1 3 5 5 5 6 3 2 1 3 2 5 3 3 3 5 7 13 10 12
31 28 23 19 20 16 11 9 9 7 8 6 5 8 13 17 15 13 21 14 15 12 6 5 2 2 2 3 4 6 4 3 3 5 2 1 3 3 0 3 4 5 4 9 13 7 15
29 27 25 19 18 12 6 4 6 4 6 6 6 10 15 11 30 27 17 8 5 4 2 3 4 1 7 4 4 1 3 3 1 1 2 1 1 7 9 8 7 9 13 17 18 20 17
26 28 23 21 16 15 6 5 5 5 4 5 9 10 15 24 23 17 5 4 3 2 4 4 4 3 4 3 4 5 4 3 3 4 3 3 9 10 9 10 13 12 16 18 16 16 12
24 23 23 18 17 14 9 2 4 5 6 9 9 6 11 12 12 6 5 2 4 6 5 1 3 2 3 3 0 4 5 2 1 2 5 7 3 8 5 11 13 12 13 14 13 12 8
14 17 18 16 15 12 10 10 10 10 12 11 9 6 10 12 5 1 2 3 5 3 5 1 3 2 3 0 4 5 4 2 2 1 2 6 6 9 8 11 13 12 10 7 8 5 3
5 8 10 12 11 10 10 8 11 16 13 13 14 22 19 6 7 2 1 3 4 3 6 4 3 0 4 2 8 2 4 3 3 3 2 2 3 7 6 8 8 10 7 3 14 6 5
15 3 4 8 8 11 14 16 17 14 14 14 12 13 6 4 3 2 3 4 2 5 1 3 4 3 3 4 6 6 3 1 1 2 6 7 3 3 6 8 11 9 5 8 2 2 5
15 10 7 11 14 16 16 19 16 16 14 12 16 13 7 3 2 4 3 3 6 7 4 3 5 4 5 5 6 8 6 4 3 1 3 5 5 4 5 6 2 3 2 3 4 5 3
19 14 12 15 16 13 15 16 14 12 13 14 14 15 12 8 3 5 3 5 11 2 4 3 3 3 3 4 4 8 3 2 5 4 2 5 7 3 4 5 4 2 4 3 5 4 3
16 14 14 14 16 15 15 14 12 15 17 16 9 4 4 6 7 4 4 7 6 2 3 2 2 2 3 2 2 4 4 4 1 2 1 4 5 3 7 5 4 2 2 2 3 1 3
20 15 15 15 15 15 15 11 8 7 7 3 3 4 3 7 6 4 5 5 3 3 5 3 2 5 2 3 1 3 1 4 4 2 2 3 4 5 4 4 6 6 3 3 2 4 4
19 13 15 14 13 13 11 8 6 5 5 8 4 4 4 9 3 4 4 3 3 2 2 3 4 6 4 3 5 4 4 1 4 5 3 3 2 7 2 3 4 5 4 3 1 4 1
13 12 11 12 11 11 9 6 6 4 8 8 4 4 4 5 4 1 2 1 2 3 2 3 2 3 4 6 5 3 2 1 4 4 2 1 2 3 3 5 3 3 5 2 4 5 4
13 9 10 9 9 10 10 6 4 4 8 2 3 1 4 2 4 4 1 2 3 5 5 5 5 3 2 2 2 2 2 4 3 3 3 4 4 4 10 8 7 5 11 3 3 3 4
17 10 5 7 6 7 8 7 3 7 10 4 3 2 4 2 2 2 3 1 2 1 3 3 3 3 3 2 4 2 1 4 3 1 4 0 4 4 6 6 5 7 12 8 5 5 2
14 14 14 6 7 7 4 6 8 7 11 3 1 1 4 2 4 2 2 3 2 2 2 3 2 5 4 3 3 4 4 6 3 4 2 4 2 3 2 3 2 4 5 10 7 5 6
18 12 12 12 7 6 5 5 7 6 10 2 2 2 3 3 2 1 2 1 1 2 2 4 4 3 6 3 2 1 3 3 1 7 5 4 1 2 2 3 2 3 7 7 9 11 8
12 17 11 10 13 11 8 6 5 4 5 2 3 2 4 4 4 2 3 1 1 2 2 1 2 0 2 2 4 5 5 3 2 1 3 2 3 2 3 2 2 4 2 2 2 3 6
12 12 13 10 6 10 10 8 7 5 4 1 2 1 3 4 0 3 1 2 0 2 2 2 4 3 2 4 5 4 5 5 1 2 1 1 2 3 3 3 2 6 1 2 4 2 3
9 9 10 10 7 8 5 8 5 6 2 4 2 3 2 3 4 6 1 2 1 1 1 1 2 2 4 4 4 5 5 3 3 4 1 2 3 1 3 2 3 0 4 5 5 5 5
7 7 7 8 8 6 6 3 3 6 6 4 2 3 3 2 4 4 2 3 3 2 3 2 3 3 2 2 3 1 3 3 3 6 2 1 3 4 1 1 4 4 4 3 3 5 8
7 8 8 9 11 12 6 4 4 7 7 5 1 1 4 2 2 5 1 3 3 1 1 2 2 2 2 2 1 1 3 1 2 3 3 2 2 3 1 2 7 4 6 4 4 7 6
9 10 10 12 14 13 9 8 4 3 5 5 2 1 4 2 3 2 3 2 5 3 2 3 4 3 2 1 2 3 2 4 2 5 4 5 4 4 2 2 7 7 4 8 5 2 6
10 10 13 10 8 10 10 9 8 1 7 3 1 1 2 4 3 2 3 6 3 2 1 4 3 1 3 1 1 0 2 1 3 4 0 3 7 4 8 7 4 8 5 5 6 6 7
Wind_Direction
335 330 324 319 311 315 315 309 297 290 279 277 290 311 321 325 322 311 312 282 163 156 154 154 182 164 118 144 151 166 127 132 125 27 4 45 39 1 316 333 349 298 301 312 316 315 299
332 326 325 327 325 319 323 316 307 290 282 286 277 303 321 323 322 314 299 184 153 141 143 150 161 139 179 107 150 145 136 157 136 44 27 65 26 15 18 330 0 326 337 315 311 300 287
326 319 330 326 327 322 325 326 314 310 284 264 270 295 322 330 333 310 205 147 148 137 132 149 156 201 42 118 132 165 147 163 133 64 52 42 56 58 2 328 4 351 329 305 281 274 270
334 337 333 333 327 323 320 321 316 309 301 285 289 302 323 330 337 15 132 123 110 122 132 146 166 254 105 37 92 121 179 138 90 108 76 49 78 91 76 338 356 341 317 304 325 282 261
343 333 337 336 330 323 331 318 289 286 300 304 308 315 332 324 305 332 130 112 124 126 143 141 132 224 131 358 115 182 187 191 158 141 144 239 90 105 21 54 337 302 270 249 289 256 254
339 337 339 335 329 315 317 331 18 310 313 330 0 360 346 315 283 116 113 118 123 116 132 182 190 73 180 156 142 174 210 165 116 157 183 51 55 73 343 147 233 234 250 278 277 271 296
343 341 341 346 329 337 315 40 358 14 341 6 34 27 8 22 123 121 119 120 108 84 262 172 228 58 117 76 72 358 135 110 139 219 207 163 54 218 214 208 243 271 274 274 275 281 284
345 343 348 355 355 351 313 253 272 297 342 61 64 47 35 113 111 112 92 71 54 185 123 299 1 23 86 159 145 179 118 148 168 205 66 356 257 252 227 236 267 263 283 274 279 270 274
340 343 349 351 7 5 6 354 8 52 68 63 56 79 85 75 91 44 72 114 342 359 106 87 276 298 149 141 132 147 138 73 80 248 211 214 214 330 242 237 255 252 258 273 257 301 259
320 335 345 5 1 26 62 80 88 84 81 73 40 185 152 140 73 75 55 343 340 357 91 96 217 162 115 282 56 106 82 94 142 270 240 249 241 254 271 259 239 275 249 252 289 288 261
156 318 348 5 11 25 48 82 85 95 85 80 67 97 110 175 124 128 332 312 310 52 74 261 111 273 158 170 156 98 99 80 207 195 168 265 235 226 249 242 181 238 237 243 269 216 284
9 191 28 10 37 68 86 98 102 95 85 74 102 87 101 60 59 45 277 314 13 52 308 303 145 194 197 199 177 128 165 64 33 226 215 253 296 236 229 256 254 274 346 289 133 174 248
111 128 69 56 59 77 89 100 95 98 101 96 106 80 50 60 64 315 333 45 51 85 275 272 218 186 234 195 191 170 185 195 208 4 271 196 226 230 214 263 222 72 283 274 176 216 17
117 108 87 92 84 82 94 94 97 103 103 109 83 78 63 53 340 335 51 63 69 170 204 209 201 205 250 174 207 191 152 267 225 250 287 355 334 230 161 199 249 231 218 319 351 34 51
92 81 70 86 99 97 99 89 99 111 118 116 107 56 51 350 355 25 65 55 171 251 279 158 350 248 273 229 177 169 152 4 206 91 145 3 286 278 230 216 214 359 303 242 271 286 80
61 59 58 74 77 92 92 82 84 110 101 53 53 64 37 332 341 42 67 112 86 330 326 331 258 193 107 347 88 138 93 348 315 352 140 294 301 226 275 223 242 206 223 294 36 36 66
58 49 48 68 59 59 66 68 58 47 25 331 42 58 311 335 39 45 99 92 127 247 57 37 324 9 37 348 30 45 1 245 352 302 171 280 202 298 10 340 307 341 333 306 153 145 133
51 73 62 49 59 61 53 51 54 53 322 29 59 62 306 357 37 41 66 83 269 322 307 314 274 357 2 17 18 67 87 286 332 309 337 277 243 292 248 269 291 270 293 360 86 7 60
56 71 81 70 54 54 57 46 20 275 5 30 73 68 308 28 71 348 254 87 48 24 0 360 352 347 314 320 75 36 69 261 339 11 356 346 349 2 346 349 351 358 336 299 111 58 22
45 60 112 119 92 58 31 27 314 314 339 37 100 25 321 14 224 291 18 45 112 260 289 320 290 295 309 337 42 77 6 220 266 269 215 57 39 132 167 222 251 327 345 5 83 76 64
19 51 53 142 125 116 55 4 355 355 350 34 54 225 194 294 328 83 67 335 104 55 317 256 335 28 307 38 1 26 351 0 284 344 327 110 89 62 300 228 331 332 356 11 67 156 109
9 13 65 67 115 140 98 3 353 354 347 43 1 82 353 285 309 110 26 256 125 164 43 342 58 40 41 69 87 8 321 33 68 323 6 11 188 64 304 352 101 31 359 19 50 77 82
13 8 14 85 94 82 74 52 23 9 68 344 321 318 99 294 312 72 232 167 50 50 298 36 305 296 67 271 302 278 290 248 253 4 333 34 130 92 271 328 16 338 295 20 76 41 149
359 10 7 10 52 120 112 86 50 56 170 149 284 64 67 284 150 248 328 22 263 89 302 12 12 351 290 327 304 280 299 283 157 354 116 2 117 129 235 26 34 246 232 293 132 136 97
342 354 357 3 335 346 77 101 68 20 74 117 3 79 70 306 227 317 277 268 160 282 291 245 262 226 316 322 9 358 343 347 232 219 291 105 116 61 111 191 231 147 229 180 172 249 195
311 326 337 326 311 285 281 333 65 68 50 83 128 146 108 90 296 312 245 264 229 244 323 286 287 280 355 33 41 20 248 233 304 320 261 352 99 118 139 99 215 211 187 146 74 278 191
298 306 314 303 284 279 250 281 331 42 78 104 35 28 109 96 315 31 346 266 315 317 178 294 272 310 56 38 28 204 262 175 264 256 227 345 356 167 208 243 288 174 169 132 147 244 154
292 297 298 292 274 255 240 194 210 345 63 120 205 176 124 154 279 93 13 19 338 5 137 280 29 334 29 39 158 257 194 244 313 243 195 184 157 215 138 175 280 154 105 166 202 95 140
290 302 309 315 298 218 204 186 175 265 311 123 82 272 114 129 228 239 177 160 162 153 331 318 199 271 225 83 294 293 281 262 195 274 338 247 190 194 181 216 223 196 190 199 157 155 172